Location: Ballingbuur
(53.0000°N, 5.7667°E)
Time: 19:23:50
(UTC+00:00)

Cosmos 1356 - Pass Details

Date: 13 April 2021
Orbit: 438 x 442 km, 81.1° (Epoch: 13 May)

Event Time Altitude Azimuth Distance (km) Brightness Sun altitude
Rises 19:26:54 0° 360° (N) 2,455 7.6 -8.2°
Reaches altitude 10° 19:29:43 10° 25° (NNE) 1,578 6.2 -8.6°
Maximum altitude 19:31:43 15° 61° (ENE) 1,314 5.5 -8.9°
Enters shadow 19:33:32 11° 94° (E) 1,524 5.5 -9.1°
